Location: *
(33.8649°S, 62.1526°E)
Time: 12:32:10
(UTC+00:00)

CZ-4C R/B - Pass Details

Date: 17 January 2021
Orbit: 463 x 635 km, 98.0° (Epoch: 02 March)

Event Time Altitude Azimuth Distance (km) Brightness Sun altitude
Rises 23:35:36 0° 180° (S) 2,790 7.5 -15.5°
Reaches altitude 10° 23:37:51 10° 189° (S) 1,914 6.5 -15.1°
Maximum altitude 23:41:36 33° 253° (WSW) 1,021 4.4 -14.5°
Enters shadow 23:43:27 23° 297° (WNW) 1,308 4.6 -14.2°
